Regional Weather Roundup
Issued by NWS

Home | Current Version | Previous Version | Text Only | Print | Product List | Glossary On
Versions: 1 2 3 4 5 6 7 8 9 10 11 12 13 14 15 16 17 18 19 20 21 22 23 24 25 26 27 28 29 30 31 32 33 34 35 36 37 38 39 40 41 42 43 44 45 46 47 48 49 50
000
ASUS43 KMKX 180411
RWRWI

WISCONSIN REGIONAL WEATHER ROUNDUP
NATIONAL WEATHER SERVICE MILWAUKEE/SULLIVAN WI
1100 PM CDT THU AUG 17 2017

NOTE: "FAIR" INDICATES FEW OR NO CLOUDS BELOW 12,000 FEET WITH NO
SIGNIFICANT WEATHER AND/OR OBSTRUCTIONS TO VISIBILITY.

WIZ001-002-006>008-014>016-023>028-180500-
NORTHWEST WISCONSIN

CITY           SKY/WX    TMP DP  RH WIND       PRES   REMARKS
SUPERIOR ARPT    N/A     61  59  93 NW7       29.78S
ASHLAND        CLOUDY    62  60  93 W7        29.74S
HAYWARD        CLOUDY    62  59  90 VRB5      29.78S
SIREN          MOCLDY    60  58  95 NW3       29.82R
CUMBERLAND     CLOUDY    61  57  88 NW10      29.81S
RICE LAKE      CLOUDY    64  58  83 NW7       29.81S
CHETEK         CLOUDY    64  60  89 NW7       29.79S
LADYSMITH      CLOUDY    63  61  93 NW10      29.78S
EAU CLAIRE     CLOUDY    65  60  84 NW10      29.79R
MENOMONIE      CLOUDY    66  60  81 NW8       29.81R
NEW RICHMOND   CLOUDY    65  62  90 NW3       29.83S
OSCEOLA        CLOUDY    66  60  79 NW7       29.85R
$$

WIZ003>005-009-010-017-018-180500-
NORTH CENTRAL WISCONSIN

CITY           SKY/WX    TMP DP  RH WIND       PRES   REMARKS
MANITOWISH WTR CLOUDY    59  59 100 NW9       29.71R
ARBOR VITAE    CLOUDY    62  59  90 NW12G25   29.70R
WOODRUFF       CLOUDY    62  59  90 NW12G25   29.70R
RHINELANDER    CLOUDY    61  59  93 W10       29.70R
EAGLE RIVER    CLOUDY    60  59  98 NW13      29.67S
LAND O LAKES   LGT RAIN  60  59  97 NW9       29.69S
PHILLIPS       CLOUDY    60  60 100 NW6       29.73S FOG
TOMAHAWK         N/A     59  58  95 W8        29.72S
MEDFORD        DRIZZLE   60  60  97 NW5       29.74S
MERRILL        DRIZZLE   61  61 100 NW3       29.72R
$$

WIZ029-030-035-036-043>047-180500-
CENTRAL WISCONSIN

CITY           SKY/WX    TMP DP  RH WIND       PRES   REMARKS
WAUSAU         CLOUDY    63  61  94 NW13      29.70R
MOSINEE        CLOUDY    63  61  94 W12G17    29.73R
MARSHFIELD     CLOUDY    63  60  90 W8        29.74S
STEVENS POINT  CLOUDY    63  61  93 W9        29.73R
WAUPACA        CLOUDY    68  61  78 W9        29.70R
WAUTOMA        CLOUDY    64  63  94 W13       29.73S
WISC RAPIDS    CLOUDY    64  62  93 NW10      29.76R
CAMP DOUGLAS   PTCLDY    66  61  82 W9        29.76S
$$

WIZ011>013-019>022-031-037>040-048>050-180500-
NORTHEAST WISCONSIN

CITY           SKY/WX    TMP DP  RH WIND       PRES   REMARKS
ANTIGO         CLOUDY    60  58  92 NW14G21   29.69R
SHAWANO        CLOUDY    66  60  82 W12G18    29.65R
OCONTO         CLOUDY    67  65  93 W17       29.60R
STURGEON BAY   CLOUDY    68  66  93 W14G22    29.59R
GREEN BAY      CLOUDY    66  65  96 W12G22    29.64R
MANITOWOC      CLOUDY    67  63  87 W14G20    29.65R
APPLETON       CLOUDY    66  59  77 W14       29.67R
CLINTONVILLE   CLOUDY    64  57  77 W14G20    29.67R
OSHKOSH        CLOUDY    66  61  84 W13       29.69R
$$

WIZ032>034-041-042-053>061-180500-
SOUTHWEST WISCONSIN

CITY           SKY/WX    TMP DP  RH WIND       PRES   REMARKS
LA CROSSE      CLOUDY    69  65  86 NE3       29.79R
SPARTA         CLOUDY    65  61  86 NW9       29.80R
VIROQUA        CLOUDY    64  64 100 NW6       29.82R
BOSCOBEL       CLOUDY    71  64  78 W3        29.80R
PRAIRIE DU CHI MOCLDY    69  63  80 W8        29.81R
PLATTEVILLE    CLEAR     67  67 100 W10       29.82R
$$

WIZ056-057-062-063-064-067-068-180500-
SOUTH CENTRAL WISCONSIN

CITY           SKY/WX    TMP DP  RH WIND       PRES   REMARKS
REEDSBURG      CLOUDY    66  62  86 W7G16     29.77S
BARABOO/DELLS  CLOUDY    66  59  79 W7        29.77S
LONE ROCK      CLOUDY    67  65  93 W12       29.79R
MINERAL POINT  CLOUDY    70  68  94 W12       29.80S
MADISON        MOCLDY    68  61  78 W8        29.76R
MIDDLETON      CLOUDY    68  62  82 W12       29.77S
WATERTOWN      CLOUDY    66  65  97 W7        29.75R
MONROE         MOCLDY    66  63  88 W8        29.79S
JANESVILLE     CLOUDY    68  68 100 W8        29.77S
$$

WIZ051-052-058>065-066-070>072-180500-
SOUTHEAST WISCONSIN

CITY           SKY/WX    TMP DP  RH WIND       PRES   REMARKS
MILWAUKEE      CLOUDY    70  62  76 W14G24    29.72S
WAUKESHA       CLOUDY    64  61  88 W16       29.74S
MILWAUKEE/TIMM CLOUDY    66  57  72 W14G23    29.73R
RACINE         PTCLDY    69  62  78 W13G25    29.74R
KENOSHA        PTCLDY    70  62  76 W17G23    29.74R
FOND DU LAC    CLOUDY    67  59  75 W13       29.71R
SHEBOYGAN      CLOUDY    67  63  87 W14G24    29.67S
WEST BEND      MOCLDY    64  61  88 W13       29.71S
JUNEAU         CLOUDY    65  61  87 W8        29.75R
$$

LSZ147-162-180500-
LAKE SUPERIOR

STATION/POSITION TIME  TEMP    WIND        PRES    WAVE
                       AIR SEA DIR/SP/G            HT/PER
                 (UTC) (F)     (DEG/KT/KT) (MB)    (FT/S)
W MID LAKE BUOY  0350   62 60  300/ 16/ 17 1004.0R   4/ 6
DEVILS ISLAND    0400   63     300/ 16/ 18 1006.2R
SAXON HARBOR     0330   64     300/  9/ 13 1006.1S
$$

LMZ867-665-643>646-180500-
LAKE MICHIGAN

STATION/POSITION TIME  TEMP    WIND        PRES    WAVE
                       AIR SEA DIR/SP/G            HT/PER
                 (UTC) (F)     (DEG/KT/KT) (MB)    (FT/S)
S GREEN BAY BUOY 0400   69 71  260/ 19/ 27 1002.1
N MID LAKE BUOY  0350   69 67  200/ 12/ 16 1000.0F   4/ 6
NORTHPORT PIER   0340   69     270/  6/ 11 1000.0S
KEWAUNEE LAKESHO 0342   68     260/ 12/ 19 1002.1R
SHEBOYGAN LAKESH 0400   68     270/ 15/ 19 1004.1R
PORT WASHINGTON  0330   69     280/  9/ 16 1006.1S
ATWATER BUOY     0309   69 69  260/ 19/ 25 1006.0
MILWAUKEE LAKESH 0350   69     270/ 11/ 13   N/A
S MID LAKE BUOY  0350   72 71  290/ 19/ 25 1005.8R   5/ 4
KENOSHA   LAKESH 0400   71     260/ 11/ 18 1006.8
$$

TC  - TEMPERATURE IN CELSIUS
VSB - VISIBILITY IN STATUTE MILES
WCI - WIND CHILL INDEX
HX  - HEAT INDEX





USA.gov is the U.S. government's official web portal to all federal, state and local government web resources and services.